Date,TemperatureHighF,TemperatureAvgF,TemperatureLowF,DewpointHighF,DewpointAvgF,DewpointLowF,HumidityHigh,HumidityAvg,HumidityLow,PressureMaxIn,PressureMinIn,WindSpeedMaxMPH,WindSpeedAvgMPH,GustSpeedMaxMPH,PrecipitationSumIn
2013-1-1,29.8,21.1,9.9,26.1,14.2,5.8,86,75,60,30.17,30.03,10,1,10,0.00
2013-1-2,23.8,16.9,8.9,17.2,11.8,5.6,88,80,73,30.25,30.11,9,1,9,0.00
2013-1-3,28.2,21.1,10.4,23.9,14.8,4.2,85,76,68,30.22,30.13,16,2,16,0.00
2013-1-4,27.6,22.8,17.9,21.6,16.9,13.4,84,78,70,30.24,30.12,22,5,22,0.00
2013-1-5,33.7,26.7,18.7,29.8,21.6,15.5,90,81,67,30.32,30.07,16,2,16,0.02
2013-1-6,35.7,32.9,29.8,31.3,28.4,25.4,88,83,77,30.28,29.94,21,3,21,0.07
2013-1-7,35.2,30.7,24.9,26.7,24.3,20.4,85,77,67,30.42,30.18,19,3,19,0.02
2013-1-8,38.9,30.7,25.1,28.1,24.6,20.4,87,78,63,30.28,30.18,13,1,13,0.03
2013-1-9,45.6,37.4,27.2,34.6,30.0,22.0,88,75,58,30.48,30.06,19,3,19,0.01
2013-1-10,42.9,32.1,22.4,32.8,27.0,19.6,91,82,62,30.58,30.15,12,1,12,0.06
2013-1-11,58.2,46.2,35.3,52.8,43.0,32.2,95,89,80,30.16,29.77,19,2,19,0.77
2013-1-12,58.9,52.0,46.5,52.8,48.0,43.7,94,86,80,29.95,29.76,17,2,17,0.18
2013-1-13,52.2,40.2,31.1,50.5,38.3,28.1,94,93,89,30.07,29.68,20,2,20,1.52
2013-1-14,31.0,24.8,18.4,28.1,19.0,15.1,89,78,70,30.45,30.07,22,2,22,0.00
2013-1-15,31.3,22.7,14.0,20.9,16.7,11.1,89,78,61,30.46,30.16,7,0,7,0.00
2013-1-16,36.2,28.7,21.8,26.8,22.2,18.4,89,77,58,30.16,29.87,19,3,19,0.00
2013-1-17,39.7,30.8,18.9,29.2,22.5,9.0,90,72,52,30.34,30.00,21,3,21,0.00
2013-1-18,36.2,28.0,19.0,24.2,18.5,10.2,80,67,56,30.46,30.03,25,4,25,0.00
2013-1-19,47.9,41.6,35.8,34.6,29.8,24.1,76,63,55,30.04,29.64,27,8,27,0.00
2013-1-20,41.3,24.5,18.4,34.3,13.1,6.8,76,61,50,30.20,29.64,34,8,34,0.00
2013-1-21,19.5,15.7,8.4,10.9,6.7,0.2,79,67,52,30.17,29.99,27,5,27,0.00
2013-1-22,12.1,5.5,-0.1,4.7,-1.4,-6.9,88,73,66,30.35,30.15,19,2,19,0.00
2013-1-23,18.0,11.6,3.7,11.7,4.2,-2.3,84,72,55,30.35,30.10,18,1,18,0.00
2013-1-24,20.1,13.3,5.4,11.2,5.8,0.9,85,72,48,30.62,30.13,12,1,12,0.00
2013-1-25,21.2,18.6,16.1,17.4,12.4,7.7,88,77,68,30.53,30.04,9,0,9,0.01
2013-1-26,26.2,22.4,15.2,19.6,16.5,10.7,88,78,63,30.47,30.08,14,1,14,0.00
2013-1-27,31.1,23.1,12.5,26.8,17.1,8.8,87,78,65,30.50,30.13,15,1,15,0.01
2013-1-28,47.3,40.8,31.1,45.7,39.0,26.5,96,93,83,30.16,29.89,24,3,24,0.11
2013-1-29,58.7,50.0,37.0,54.8,47.8,35.5,96,92,85,30.02,29.45,22,4,22,0.24
2013-1-30,62.6,50.7,32.8,57.3,47.4,26.1,94,88,76,29.45,29.12,31,6,31,0.66
2013-1-31,32.8,22.7,16.0,26.4,15.4,8.0,87,73,56,29.93,29.31,33,9,33,0.00